Regional Weather Roundup
Issued by NWS

Home | Current Version | Previous Version | Text Only | Print | Product List | Glossary On
Versions: 1 2 3 4 5 6 7 8 9 10 11 12 13 14 15 16 17 18 19 20 21 22 23 24 25 26 27 28 29 30 31 32 33 34 35 36 37 38 39 40 41 42 43 44 45 46 47 48 49 50
726
ASUS43 KTOP 180208
RWRKS

WEATHER ROUNDUP FOR KANSAS
NATIONAL WEATHER SERVICE GOODLAND KS
800 PM CST SAT FEB 17 2018

NOTE:  "FAIR" INDICATES FEW OR NO CLOUDS BELOW 12,000 FEET WITH NO
SIGNIFICANT WEATHER AND/OR OBSTRUCTIONS TO VISIBILITY.

KSZ001>006-013>018-027>032-041>047-180300-
NORTHWEST KANSAS

CITY           SKY/WX    TMP DP  RH WIND       PRES   REMARKS
GOODLAND       CLEAR     35  17  47 S14       30.00F WCI  26
HAYS           CLEAR     40  10  29 S7        30.11
HILL CITY      CLEAR     38  12  34 S3        30.09R
RUSSELL        CLEAR     36  10  34 SE7       30.10R
$$

KSZ061>065-074>080-084>089-180300-
SOUTHWEST KANSAS

CITY           SKY/WX    TMP DP  RH WIND       PRES   REMARKS
DODGE CITY     CLEAR     38  10  31 SE10      30.12F WCI  31
ELKHART        PTCLDY    39  14  35 S12       30.12S WCI  32
GARDEN CITY    CLEAR     35   6  29 SE12      30.09F WCI  27
GREAT BEND     CLEAR     33   9  36 S9        30.14R
LIBERAL        CLOUDY    41   9  26 SE12      30.13S
PRATT          CLEAR     44   8  23 S5        30.16R
$$

KSZ066>073-081>083-090>101-180300-
SOUTHEAST KANSAS

CITY           SKY/WX    TMP DP  RH WIND       PRES   REMARKS
CHANUTE        CLEAR     37  21  52 CALM      30.18R
COFFEYVILLE    CLEAR     42  28  57 CALM      30.19R
HUTCHINSON     CLEAR     33  12  41 CALM      30.15R
MEDICINE LODGE   N/A     49  11  21 SE6       30.16S
NEWTON         CLEAR     43  12  28 SE6       30.16S
PARSONS        CLEAR     34  27  75 CALM      30.19R
WICHITA INTL   PTCLDY    38  11  32 S3        30.16R
WICHITA JABRA  CLEAR     43  12  28 SE5       30.16S
WICHITA MCCONL CLEAR     46  11  24 SE6       30.16R
WINFIELD       CLEAR     37  18  46 SE3       30.18S
$$

KSZ007>012-019>026-033>040-048>060-102>105-180300-
NORTHEAST KANSAS

CITY           SKY/WX    TMP DP  RH WIND       PRES   REMARKS
CONCORDIA      CLEAR     43  16  33 CALM      30.12S
EMPORIA        CLEAR     38  14  37 S8        30.17R
LAWRENCE       CLEAR     33  21  61 CALM      30.17R
MANHATTAN      CLEAR     36  16  44 N3        30.15R
MARYSVILLE     CLEAR     36  21  55 E5        30.14S
OLATHE IND     CLEAR     35  21  56 CALM      30.17S
OLATHE EXE     CLEAR     41  19  41 CALM      30.17R
SALINA         CLEAR     43  14  31 E5        30.13F
TOPEKA BILLARD CLEAR     37  21  52 CALM      30.16R
TOPEKA FORBES  CLEAR     35  19  52 CALM      30.16R
$$




USA.gov is the U.S. government's official web portal to all federal, state and local government web resources and services.